Year,Month,Day,Hour,Minute,Value (Times are PST for temperature in C)
2017,06,29,00,00,14.30
2017,06,29,00,01,14.30
2017,06,29,00,02,14.30
2017,06,29,00,03,14.30
2017,06,29,00,04,14.30
2017,06,29,00,05,14.20
2017,06,29,00,06,14.20
2017,06,29,00,07,14.20
2017,06,29,00,08,14.20
2017,06,29,00,09,14.20
2017,06,29,00,10,14.20
2017,06,29,00,11,14.20
2017,06,29,00,12,14.20
2017,06,29,00,13,14.20
2017,06,29,00,14,14.20
2017,06,29,00,15,14.20
2017,06,29,00,16,14.20
2017,06,29,00,17,14.20
2017,06,29,00,18,14.20
2017,06,29,00,19,14.10
2017,06,29,00,20,14.10
2017,06,29,00,21,14.10
2017,06,29,00,22,14.10
2017,06,29,00,23,14.10
2017,06,29,00,24,14.10
2017,06,29,00,25,14.00
2017,06,29,00,26,14.00
2017,06,29,00,27,14.00
2017,06,29,00,28,14.00
2017,06,29,00,29,13.90
2017,06,29,00,30,13.90
2017,06,29,00,31,13.90
2017,06,29,00,32,13.90
2017,06,29,00,33,13.90
2017,06,29,00,34,13.90
2017,06,29,00,35,13.90
2017,06,29,00,36,13.80
2017,06,29,00,37,13.80
2017,06,29,00,38,13.80
2017,06,29,00,39,13.80
2017,06,29,00,40,13.80
2017,06,29,00,41,13.70
2017,06,29,00,42,13.70
2017,06,29,00,43,13.70
2017,06,29,00,44,13.70
2017,06,29,00,45,13.70
2017,06,29,00,46,13.70
2017,06,29,00,47,13.70
2017,06,29,00,48,13.70
2017,06,29,00,49,13.70
2017,06,29,00,50,13.70
2017,06,29,00,51,13.60
2017,06,29,00,52,13.60
2017,06,29,00,53,13.60
2017,06,29,00,54,13.60
2017,06,29,00,55,13.60
2017,06,29,00,56,13.60
2017,06,29,00,57,13.60
2017,06,29,00,58,13.60
2017,06,29,00,59,13.50
2017,06,29,01,00,13.50
2017,06,29,01,01,13.50
2017,06,29,01,02,13.50
2017,06,29,01,03,13.50
2017,06,29,01,04,13.40
2017,06,29,01,05,13.40
2017,06,29,01,06,13.40
2017,06,29,01,07,13.40
2017,06,29,01,08,13.30
2017,06,29,01,09,13.30
2017,06,29,01,10,13.30
2017,06,29,01,11,13.30
2017,06,29,01,12,13.20
2017,06,29,01,13,13.20
2017,06,29,01,14,13.20
2017,06,29,01,15,13.20
2017,06,29,01,16,13.10
2017,06,29,01,17,13.10
2017,06,29,01,18,13.10
2017,06,29,01,19,13.10
2017,06,29,01,20,13.00
2017,06,29,01,21,13.00
2017,06,29,01,22,13.00
2017,06,29,01,23,12.90
2017,06,29,01,24,12.90
2017,06,29,01,25,12.90
2017,06,29,01,26,12.90
2017,06,29,01,27,12.90
2017,06,29,01,28,12.80
2017,06,29,01,29,12.80
2017,06,29,01,30,12.80
2017,06,29,01,31,12.80
2017,06,29,01,32,12.80
2017,06,29,01,33,12.70
2017,06,29,01,34,12.70
2017,06,29,01,35,12.70
2017,06,29,01,36,12.70
2017,06,29,01,37,12.70
2017,06,29,01,38,12.70
2017,06,29,01,39,12.70
2017,06,29,01,40,12.70
2017,06,29,01,41,12.70
2017,06,29,01,42,12.60
2017,06,29,01,43,12.60
2017,06,29,01,44,12.60
2017,06,29,01,45,12.60
2017,06,29,01,46,12.60
2017,06,29,01,47,12.60
2017,06,29,01,48,12.60
2017,06,29,01,49,12.60
2017,06,29,01,50,12.60
2017,06,29,01,51,12.60
2017,06,29,01,52,12.60
2017,06,29,01,53,12.60
2017,06,29,01,54,12.60
2017,06,29,01,55,12.60
2017,06,29,01,56,12.60
2017,06,29,01,57,12.50
2017,06,29,01,58,12.50
2017,06,29,01,59,12.50
2017,06,29,02,00,12.50
2017,06,29,02,01,12.50
2017,06,29,02,02,12.50
2017,06,29,02,03,12.50
2017,06,29,02,04,12.50
2017,06,29,02,05,12.40
2017,06,29,02,06,12.40
2017,06,29,02,07,12.40
2017,06,29,02,08,12.40
2017,06,29,02,09,12.40
2017,06,29,02,10,12.40
2017,06,29,02,11,12.40
2017,06,29,02,12,12.40
2017,06,29,02,13,12.40
2017,06,29,02,14,12.40
2017,06,29,02,15,12.30
2017,06,29,02,16,12.30
2017,06,29,02,17,12.30
2017,06,29,02,18,12.30
2017,06,29,02,19,12.30
2017,06,29,02,20,12.30
2017,06,29,02,21,12.30
2017,06,29,02,22,12.20
2017,06,29,02,23,12.20
2017,06,29,02,24,12.20
2017,06,29,02,25,12.20
2017,06,29,02,26,12.20
2017,06,29,02,27,12.20
2017,06,29,02,28,12.10
2017,06,29,02,29,12.10
2017,06,29,02,30,12.10
2017,06,29,02,31,12.10
2017,06,29,02,32,12.10
2017,06,29,02,33,12.10
2017,06,29,02,34,12.10
2017,06,29,02,35,12.00
2017,06,29,02,36,12.00
2017,06,29,02,37,12.00
2017,06,29,02,38,12.00
2017,06,29,02,39,12.00
2017,06,29,02,40,12.00
2017,06,29,02,41,12.00
2017,06,29,02,42,11.90
2017,06,29,02,43,11.90
2017,06,29,02,44,11.90
2017,06,29,02,45,11.90
2017,06,29,02,46,11.90
2017,06,29,02,47,11.90
2017,06,29,02,48,11.90
2017,06,29,02,49,11.90
2017,06,29,02,50,11.90
2017,06,29,02,51,11.90
2017,06,29,02,52,11.90
2017,06,29,02,53,11.90
2017,06,29,02,54,11.90
2017,06,29,02,55,11.90
2017,06,29,02,56,11.80
2017,06,29,02,57,11.80
2017,06,29,02,58,11.80
2017,06,29,02,59,11.80
2017,06,29,03,00,11.80
2017,06,29,03,01,11.80
2017,06,29,03,02,11.80
2017,06,29,03,03,11.70
2017,06,29,03,04,11.70
2017,06,29,03,05,11.70
2017,06,29,03,06,11.70
2017,06,29,03,07,11.70
2017,06,29,03,08,11.70
2017,06,29,03,09,11.60
2017,06,29,03,10,11.60
2017,06,29,03,11,11.60
2017,06,29,03,12,11.60
2017,06,29,03,13,11.60
2017,06,29,03,14,11.60
2017,06,29,03,15,11.60
2017,06,29,03,16,11.60
2017,06,29,03,17,11.60
2017,06,29,03,18,11.60
2017,06,29,03,19,11.60
2017,06,29,03,20,11.60
2017,06,29,03,21,11.60
2017,06,29,03,22,11.60
2017,06,29,03,23,11.50
2017,06,29,03,24,11.50
2017,06,29,03,25,11.50
2017,06,29,03,26,11.50
2017,06,29,03,27,11.50
2017,06,29,03,28,11.50
2017,06,29,03,29,11.50
2017,06,29,03,30,11.50
2017,06,29,03,31,11.50
2017,06,29,03,32,11.50
2017,06,29,03,33,11.50
2017,06,29,03,34,11.50
2017,06,29,03,35,11.50
2017,06,29,03,36,11.50
2017,06,29,03,37,11.50
2017,06,29,03,38,11.50
2017,06,29,03,39,11.50
2017,06,29,03,40,11.50
2017,06,29,03,41,11.50
2017,06,29,03,42,11.50
2017,06,29,03,43,11.50
2017,06,29,03,44,11.50
2017,06,29,03,45,11.50
2017,06,29,03,46,11.50
2017,06,29,03,47,11.50
2017,06,29,03,48,11.40
2017,06,29,03,49,11.40
2017,06,29,03,50,11.40
2017,06,29,03,51,11.40
2017,06,29,03,52,11.40
2017,06,29,03,53,11.40
2017,06,29,03,54,11.40
2017,06,29,03,55,11.40
2017,06,29,03,56,11.40
2017,06,29,03,57,11.40
2017,06,29,03,58,11.40
2017,06,29,03,59,11.30
2017,06,29,04,00,11.30
2017,06,29,04,01,11.30
2017,06,29,04,02,11.30
2017,06,29,04,03,11.30
2017,06,29,04,04,11.30
2017,06,29,04,05,11.30
2017,06,29,04,06,11.30
2017,06,29,04,07,11.30
2017,06,29,04,08,11.30
2017,06,29,04,09,11.30
2017,06,29,04,10,11.30
2017,06,29,04,11,11.30
2017,06,29,04,12,11.30
2017,06,29,04,13,11.30
2017,06,29,04,14,11.30
2017,06,29,04,15,11.20
2017,06,29,04,16,11.20
2017,06,29,04,17,11.20
2017,06,29,04,18,11.20
2017,06,29,04,19,11.20
2017,06,29,04,20,11.20
2017,06,29,04,21,11.20
2017,06,29,04,22,11.20
2017,06,29,04,23,11.20
2017,06,29,04,24,11.20
2017,06,29,04,25,11.20
2017,06,29,04,26,11.20
2017,06,29,04,27,11.20
2017,06,29,04,28,11.20
2017,06,29,04,29,11.20
2017,06,29,04,30,11.20
2017,06,29,04,31,11.20
2017,06,29,04,32,11.20
2017,06,29,04,33,11.20
2017,06,29,04,34,11.20
2017,06,29,04,35,11.20
2017,06,29,04,36,11.20
2017,06,29,04,37,11.20
2017,06,29,04,38,11.20
2017,06,29,04,39,11.20
2017,06,29,04,40,11.30
2017,06,29,04,41,11.30
2017,06,29,04,42,11.30
2017,06,29,04,43,11.30
2017,06,29,04,44,11.30
2017,06,29,04,45,11.30
2017,06,29,04,46,11.30
2017,06,29,04,47,11.30
2017,06,29,04,48,11.20
2017,06,29,04,49,11.20
2017,06,29,04,50,11.20
2017,06,29,04,51,11.20
2017,06,29,04,52,11.20
2017,06,29,04,53,11.20
2017,06,29,04,54,11.20
2017,06,29,04,55,11.20
2017,06,29,04,56,11.30
2017,06,29,04,57,11.30
2017,06,29,04,58,11.30
2017,06,29,04,59,11.30
2017,06,29,05,00,11.30
2017,06,29,05,01,11.20
2017,06,29,05,02,11.20
2017,06,29,05,03,11.20
2017,06,29,05,04,11.20
2017,06,29,05,05,11.20
2017,06,29,05,06,11.20
2017,06,29,05,07,11.20
2017,06,29,05,08,11.20
2017,06,29,05,09,11.20
2017,06,29,05,10,11.20
2017,06,29,05,11,11.20
2017,06,29,05,12,11.20
2017,06,29,05,13,11.20
2017,06,29,05,14,11.20
2017,06,29,05,15,11.20
2017,06,29,05,16,11.20
2017,06,29,05,17,11.10
2017,06,29,05,18,11.10
2017,06,29,05,19,11.10
2017,06,29,05,20,11.10
2017,06,29,05,21,11.10
2017,06,29,05,22,11.10
2017,06,29,05,23,11.10
2017,06,29,05,24,11.10
2017,06,29,05,25,11.10
2017,06,29,05,26,11.10
2017,06,29,05,27,11.10
2017,06,29,05,28,11.10
2017,06,29,05,29,11.10
2017,06,29,05,30,11.10
2017,06,29,05,31,11.10
2017,06,29,05,32,11.10
2017,06,29,05,33,11.10
2017,06,29,05,34,11.10
2017,06,29,05,35,11.10
2017,06,29,05,36,11.10
2017,06,29,05,37,11.10
2017,06,29,05,38,11.10
2017,06,29,05,39,11.10
2017,06,29,05,40,11.10
2017,06,29,05,41,11.10
2017,06,29,05,42,11.10
2017,06,29,05,43,11.10
2017,06,29,05,44,11.10
2017,06,29,05,45,11.10
2017,06,29,05,46,11.20
2017,06,29,05,47,11.20
2017,06,29,05,48,11.20
2017,06,29,05,49,11.20
2017,06,29,05,50,11.20
2017,06,29,05,51,11.20
2017,06,29,05,52,11.20
2017,06,29,05,53,11.20
2017,06,29,05,54,11.20
2017,06,29,05,55,11.30
2017,06,29,05,56,11.30
2017,06,29,05,57,11.30
2017,06,29,05,58,11.30
2017,06,29,05,59,11.30
2017,06,29,06,00,11.40
2017,06,29,06,01,11.40
2017,06,29,06,02,11.40
2017,06,29,06,03,11.40
2017,06,29,06,04,11.50
2017,06,29,06,05,11.50
2017,06,29,06,06,11.60
2017,06,29,06,07,11.60
2017,06,29,06,08,11.60
2017,06,29,06,09,11.70
2017,06,29,06,10,11.70
2017,06,29,06,11,11.70
2017,06,29,06,12,11.80
2017,06,29,06,13,11.80
2017,06,29,06,14,11.80
2017,06,29,06,15,11.90
2017,06,29,06,16,11.90
2017,06,29,06,17,12.00
2017,06,29,06,18,12.00
2017,06,29,06,19,12.10
2017,06,29,06,20,12.10
2017,06,29,06,21,12.20
2017,06,29,06,22,12.20
2017,06,29,06,23,12.30
2017,06,29,06,24,12.30
2017,06,29,06,25,12.30
2017,06,29,06,26,12.40
2017,06,29,06,27,12.40
2017,06,29,06,28,12.50
2017,06,29,06,29,12.50
2017,06,29,06,30,12.60
2017,06,29,06,31,12.60
2017,06,29,06,32,12.60
2017,06,29,06,33,12.70
2017,06,29,06,34,12.70
2017,06,29,06,35,12.80
2017,06,29,06,36,12.80
2017,06,29,06,37,12.80
2017,06,29,06,38,12.80
2017,06,29,06,39,12.90
2017,06,29,06,40,12.90
2017,06,29,06,41,12.90
2017,06,29,06,42,13.00
2017,06,29,06,43,13.00
2017,06,29,06,44,13.00
2017,06,29,06,45,13.10
2017,06,29,06,46,13.10
2017,06,29,06,47,13.10
2017,06,29,06,48,13.10
2017,06,29,06,49,13.20
2017,06,29,06,50,13.20
2017,06,29,06,51,13.20
2017,06,29,06,52,13.20
2017,06,29,06,53,13.20
2017,06,29,06,54,13.20
2017,06,29,06,55,13.20
2017,06,29,06,56,13.20
2017,06,29,06,57,13.20
2017,06,29,06,58,13.30
2017,06,29,06,59,13.30
2017,06,29,07,00,13.30
2017,06,29,07,01,13.30
2017,06,29,07,02,13.30
2017,06,29,07,03,13.40
2017,06,29,07,04,13.40
2017,06,29,07,05,13.40
2017,06,29,07,06,13.40
2017,06,29,07,07,13.50
2017,06,29,07,08,13.50
2017,06,29,07,09,13.50
2017,06,29,07,10,13.60
2017,06,29,07,11,13.60
2017,06,29,07,12,13.60
2017,06,29,07,13,13.70
2017,06,29,07,14,13.70
2017,06,29,07,15,13.70
2017,06,29,07,16,13.80
2017,06,29,07,17,13.80
2017,06,29,07,18,13.80
2017,06,29,07,19,13.90
2017,06,29,07,20,13.90
2017,06,29,07,21,13.90
2017,06,29,07,22,13.90
2017,06,29,07,23,14.00
2017,06,29,07,24,14.00
2017,06,29,07,25,14.10
2017,06,29,07,26,14.10
2017,06,29,07,27,14.10
2017,06,29,07,28,14.10
2017,06,29,07,29,14.20
2017,06,29,07,30,14.20
2017,06,29,07,31,14.20
2017,06,29,07,32,14.20
2017,06,29,07,33,14.20
2017,06,29,07,34,14.20
2017,06,29,07,35,14.30
2017,06,29,07,36,14.30
2017,06,29,07,37,14.30
2017,06,29,07,38,14.30
2017,06,29,07,39,14.30
2017,06,29,07,40,14.40
2017,06,29,07,41,14.40
2017,06,29,07,42,14.40
2017,06,29,07,43,14.40
2017,06,29,07,44,14.40
2017,06,29,07,45,14.50
2017,06,29,07,46,14.50
2017,06,29,07,47,14.50
2017,06,29,07,48,14.50
2017,06,29,07,49,14.60
2017,06,29,07,50,14.60
2017,06,29,07,51,14.60
2017,06,29,07,52,14.70
2017,06,29,07,53,14.80
2017,06,29,07,54,14.80
2017,06,29,07,55,14.80
2017,06,29,07,56,14.80
2017,06,29,07,57,14.80
2017,06,29,07,58,14.70
2017,06,29,07,59,14.70
2017,06,29,08,00,14.60
2017,06,29,08,01,14.40
2017,06,29,08,02,14.40
2017,06,29,08,03,14.30
2017,06,29,08,04,14.30
2017,06,29,08,05,14.30
2017,06,29,08,06,14.30
2017,06,29,08,07,14.30
2017,06,29,08,08,14.30
2017,06,29,08,09,14.30
2017,06,29,08,10,14.30
2017,06,29,08,11,14.30
2017,06,29,08,12,14.20
2017,06,29,08,13,14.20
2017,06,29,08,14,14.10
2017,06,29,08,15,14.10
2017,06,29,08,16,14.10
2017,06,29,08,17,14.10
2017,06,29,08,18,14.10
2017,06,29,08,19,14.20
2017,06,29,08,20,14.20
2017,06,29,08,21,14.20
2017,06,29,08,22,14.20
2017,06,29,08,23,14.10
2017,06,29,08,24,14.10
2017,06,29,08,25,14.10
2017,06,29,08,26,14.00
2017,06,29,08,27,14.00
2017,06,29,08,28,14.00
2017,06,29,08,29,13.90
2017,06,29,08,30,13.90
2017,06,29,08,31,13.80
2017,06,29,08,32,13.90
2017,06,29,08,33,13.90
2017,06,29,08,34,14.00
2017,06,29,08,35,14.00
2017,06,29,08,36,14.00
2017,06,29,08,37,14.00
2017,06,29,08,38,14.00
2017,06,29,08,39,14.00
2017,06,29,08,40,14.00
2017,06,29,08,41,14.00
2017,06,29,08,42,14.10
2017,06,29,08,43,14.10
2017,06,29,08,44,14.10
2017,06,29,08,45,14.10
2017,06,29,08,46,14.10
2017,06,29,08,47,14.10
2017,06,29,08,48,14.00
2017,06,29,08,49,14.00
2017,06,29,08,50,14.00
2017,06,29,08,51,14.00
2017,06,29,08,52,14.00
2017,06,29,08,53,14.00
2017,06,29,08,54,14.00
2017,06,29,08,55,14.00
2017,06,29,08,56,14.00
2017,06,29,08,57,14.00
2017,06,29,08,58,14.00
2017,06,29,08,59,14.00
2017,06,29,09,00,14.00
2017,06,29,09,01,14.10
2017,06,29,09,02,14.10
2017,06,29,09,03,14.10
2017,06,29,09,04,14.10
2017,06,29,09,05,14.20
2017,06,29,09,06,14.20
2017,06,29,09,07,14.30
2017,06,29,09,08,14.30
2017,06,29,09,09,14.40
2017,06,29,09,10,14.40
2017,06,29,09,11,14.50
2017,06,29,09,12,14.50
2017,06,29,09,13,14.50
2017,06,29,09,14,14.50
2017,06,29,09,15,14.60
2017,06,29,09,16,14.70
2017,06,29,09,17,14.70
2017,06,29,09,18,14.70
2017,06,29,09,19,14.70
2017,06,29,09,20,14.80
2017,06,29,09,21,14.80
2017,06,29,09,22,14.80
2017,06,29,09,23,14.90
2017,06,29,09,24,14.90
2017,06,29,09,25,14.80
2017,06,29,09,26,14.80
2017,06,29,09,27,14.80
2017,06,29,09,28,14.80
2017,06,29,09,29,14.80
2017,06,29,09,30,14.80
2017,06,29,09,31,14.80
2017,06,29,09,32,14.80
2017,06,29,09,33,14.80
2017,06,29,09,34,14.80
2017,06,29,09,35,14.70
2017,06,29,09,36,14.70
2017,06,29,09,37,14.80
2017,06,29,09,38,14.70
2017,06,29,09,39,14.70
2017,06,29,09,40,14.70
2017,06,29,09,41,14.70
2017,06,29,09,42,14.70
2017,06,29,09,43,14.70
2017,06,29,09,44,14.70
2017,06,29,09,45,14.70
2017,06,29,09,46,14.70
2017,06,29,09,47,14.70
2017,06,29,09,48,14.70
2017,06,29,09,49,14.70
2017,06,29,09,50,14.70
2017,06,29,09,51,14.70
2017,06,29,09,52,14.70
2017,06,29,09,53,14.80
2017,06,29,09,54,14.80
2017,06,29,09,55,14.90
2017,06,29,09,56,15.00
2017,06,29,09,57,15.10
2017,06,29,09,58,15.20
2017,06,29,09,59,15.30
2017,06,29,10,00,15.40
2017,06,29,10,01,15.50
2017,06,29,10,02,15.50
2017,06,29,10,03,15.50
2017,06,29,10,04,15.40
2017,06,29,10,05,15.40
2017,06,29,10,06,15.30
2017,06,29,10,07,15.20
2017,06,29,10,08,15.20
2017,06,29,10,09,15.20
2017,06,29,10,10,15.20
2017,06,29,10,11,15.20
2017,06,29,10,12,15.20
2017,06,29,10,13,15.20
2017,06,29,10,14,15.30
2017,06,29,10,15,15.30
2017,06,29,10,16,15.30
2017,06,29,10,17,15.40
2017,06,29,10,18,15.40
2017,06,29,10,19,15.50
2017,06,29,10,20,15.50
2017,06,29,10,21,15.60
2017,06,29,10,22,15.60
2017,06,29,10,23,15.70
2017,06,29,10,24,15.70
2017,06,29,10,25,15.80
2017,06,29,10,26,15.80
2017,06,29,10,27,15.90
2017,06,29,10,28,16.00
2017,06,29,10,29,16.00
2017,06,29,10,30,16.10
2017,06,29,10,31,16.10
2017,06,29,10,32,16.20
2017,06,29,10,33,16.20
2017,06,29,10,34,16.30
2017,06,29,10,35,16.40
2017,06,29,10,36,16.40
2017,06,29,10,37,16.50
2017,06,29,10,38,16.50
2017,06,29,10,39,16.50
2017,06,29,10,40,16.50
2017,06,29,10,41,16.60
2017,06,29,10,42,16.60
2017,06,29,10,43,16.60
2017,06,29,10,44,16.70
2017,06,29,10,45,16.80
2017,06,29,10,46,16.90
2017,06,29,10,47,16.90
2017,06,29,10,48,17.00
2017,06,29,10,49,17.10
2017,06,29,10,50,17.10
2017,06,29,10,51,17.10
2017,06,29,10,52,17.10
2017,06,29,10,53,17.10
2017,06,29,10,54,17.10
2017,06,29,10,55,17.10
2017,06,29,10,56,17.10
2017,06,29,10,57,17.10
2017,06,29,10,58,17.00
2017,06,29,10,59,16.90
2017,06,29,11,00,16.90
2017,06,29,11,01,17.00
2017,06,29,11,02,17.10
2017,06,29,11,03,17.10
2017,06,29,11,04,17.20
2017,06,29,11,05,17.30
2017,06,29,11,06,17.30
2017,06,29,11,07,17.20
2017,06,29,11,08,17.20
2017,06,29,11,09,17.10
2017,06,29,11,10,17.10
2017,06,29,11,11,17.10
2017,06,29,11,12,17.20
2017,06,29,11,13,17.20
2017,06,29,11,14,17.30
2017,06,29,11,15,17.30
2017,06,29,11,16,17.20
2017,06,29,11,17,17.30
2017,06,29,11,18,17.30
2017,06,29,11,19,17.30
2017,06,29,11,20,17.30
2017,06,29,11,21,17.40
2017,06,29,11,22,17.40
2017,06,29,11,23,17.40
2017,06,29,11,24,17.50
2017,06,29,11,25,17.50
2017,06,29,11,26,17.60
2017,06,29,11,27,17.70
2017,06,29,11,28,17.80
2017,06,29,11,29,17.80
2017,06,29,11,30,17.80
2017,06,29,11,31,17.80
2017,06,29,11,32,17.70
2017,06,29,11,33,17.80
2017,06,29,11,34,17.80
2017,06,29,11,35,17.70
2017,06,29,11,36,17.70
2017,06,29,11,37,17.60
2017,06,29,11,38,17.60
2017,06,29,11,39,17.50
2017,06,29,11,40,17.40
2017,06,29,11,41,17.40
2017,06,29,11,42,17.30
2017,06,29,11,43,17.30
2017,06,29,11,44,17.40
2017,06,29,11,45,17.40
2017,06,29,11,46,17.40
2017,06,29,11,47,17.40
2017,06,29,11,48,17.50
2017,06,29,11,49,17.50
2017,06,29,11,50,17.50
2017,06,29,11,51,17.40
2017,06,29,11,52,17.40
2017,06,29,11,53,17.40
2017,06,29,11,54,17.40
2017,06,29,11,55,17.50
2017,06,29,11,56,17.50
2017,06,29,11,57,17.60
2017,06,29,11,58,17.70
2017,06,29,11,59,17.70
2017,06,29,12,00,17.70
2017,06,29,12,01,17.70
2017,06,29,12,02,17.70
2017,06,29,12,03,17.60
2017,06,29,12,04,17.60
2017,06,29,12,05,17.60
2017,06,29,12,06,17.60
2017,06,29,12,07,17.50
2017,06,29,12,08,17.50
2017,06,29,12,09,17.50
2017,06,29,12,10,17.60
2017,06,29,12,11,17.60
2017,06,29,12,12,17.60
2017,06,29,12,13,17.60
2017,06,29,12,14,17.60
2017,06,29,12,15,17.60
2017,06,29,12,16,17.60
2017,06,29,12,17,17.70
2017,06,29,12,18,17.70
2017,06,29,12,19,17.70
2017,06,29,12,20,17.80
2017,06,29,12,21,17.90
2017,06,29,12,22,17.90
2017,06,29,12,23,17.90
2017,06,29,12,24,17.90
2017,06,29,12,25,18.00
2017,06,29,12,26,18.00
2017,06,29,12,27,18.10
2017,06,29,12,28,18.10
2017,06,29,12,29,18.10
2017,06,29,12,30,18.20
2017,06,29,12,31,18.30
2017,06,29,12,32,18.30
2017,06,29,12,33,18.30
2017,06,29,12,34,18.30
2017,06,29,12,35,18.30
2017,06,29,12,36,18.30
2017,06,29,12,37,18.30
2017,06,29,12,38,18.20
2017,06,29,12,39,18.20
2017,06,29,12,40,18.30
2017,06,29,12,41,18.30
2017,06,29,12,42,18.30
2017,06,29,12,43,18.20
2017,06,29,12,44,18.20
2017,06,29,12,45,18.20
2017,06,29,12,46,18.20
2017,06,29,12,47,18.20
2017,06,29,12,48,18.20
2017,06,29,12,49,18.20
2017,06,29,12,50,18.20
2017,06,29,12,51,18.20
2017,06,29,12,52,18.20
2017,06,29,12,53,18.20
2017,06,29,12,54,18.20
2017,06,29,12,55,18.20
2017,06,29,12,56,18.30
2017,06,29,12,57,18.40
2017,06,29,12,58,18.40
2017,06,29,12,59,18.40
2017,06,29,13,00,18.40
2017,06,29,13,01,18.50
2017,06,29,13,02,18.40
2017,06,29,13,03,18.40
2017,06,29,13,04,18.50
2017,06,29,13,05,18.50
2017,06,29,13,06,18.60
2017,06,29,13,07,18.60
2017,06,29,13,08,18.60
2017,06,29,13,09,18.70
2017,06,29,13,10,18.80
2017,06,29,13,11,18.80
2017,06,29,13,12,18.80
2017,06,29,13,13,18.80
2017,06,29,13,14,18.80
2017,06,29,13,15,18.80
2017,06,29,13,16,18.80
2017,06,29,13,17,18.80
2017,06,29,13,18,18.80
2017,06,29,13,19,18.80
2017,06,29,13,20,18.80
2017,06,29,13,21,18.80
2017,06,29,13,22,18.80
2017,06,29,13,23,18.80
2017,06,29,13,24,18.80
2017,06,29,13,25,18.80
2017,06,29,13,26,18.70
2017,06,29,13,27,18.70
2017,06,29,13,28,18.70
2017,06,29,13,29,18.70
2017,06,29,13,30,18.70
2017,06,29,13,31,18.70
2017,06,29,13,32,18.80
2017,06,29,13,33,18.80
2017,06,29,13,34,18.90
2017,06,29,13,35,18.90
2017,06,29,13,36,18.90
2017,06,29,13,37,18.90
2017,06,29,13,38,18.90
2017,06,29,13,39,18.90
2017,06,29,13,40,19.00
2017,06,29,13,41,19.00
2017,06,29,13,42,19.00
2017,06,29,13,43,19.00
2017,06,29,13,44,19.10
2017,06,29,13,45,19.10
2017,06,29,13,46,19.00
2017,06,29,13,47,19.00
2017,06,29,13,48,18.90
2017,06,29,13,49,18.90
2017,06,29,13,50,18.90
2017,06,29,13,51,18.90
2017,06,29,13,52,18.90
2017,06,29,13,53,19.00
2017,06,29,13,54,19.10
2017,06,29,13,55,19.10
2017,06,29,13,56,19.20
2017,06,29,13,57,19.20
2017,06,29,13,58,19.30
2017,06,29,13,59,19.30
2017,06,29,14,00,19.30
2017,06,29,14,01,19.30
2017,06,29,14,02,19.40
2017,06,29,14,03,19.50
2017,06,29,14,04,19.50
2017,06,29,14,05,19.50
2017,06,29,14,06,19.40
2017,06,29,14,07,19.40
2017,06,29,14,08,19.30
2017,06,29,14,09,19.30
2017,06,29,14,10,19.30
2017,06,29,14,11,19.30
2017,06,29,14,12,19.30
2017,06,29,14,13,19.30
2017,06,29,14,14,19.30
2017,06,29,14,15,19.30
2017,06,29,14,16,19.20
2017,06,29,14,17,19.20
2017,06,29,14,18,19.10
2017,06,29,14,19,19.10
2017,06,29,14,20,19.10
2017,06,29,14,21,19.10
2017,06,29,14,22,19.10
2017,06,29,14,23,19.10
2017,06,29,14,24,19.10
2017,06,29,14,25,19.10
2017,06,29,14,26,19.20
2017,06,29,14,27,19.20
2017,06,29,14,28,19.10
2017,06,29,14,29,19.10
2017,06,29,14,30,19.20
2017,06,29,14,31,19.20
2017,06,29,14,32,19.20
2017,06,29,14,33,19.30
2017,06,29,14,34,19.30
2017,06,29,14,35,19.30
2017,06,29,14,36,19.40
2017,06,29,14,37,19.40
2017,06,29,14,38,19.50
2017,06,29,14,39,19.50
2017,06,29,14,40,19.60
2017,06,29,14,41,19.70
2017,06,29,14,42,19.70
2017,06,29,14,43,19.70
2017,06,29,14,44,19.70
2017,06,29,14,45,19.70
2017,06,29,14,46,19.70
2017,06,29,14,47,19.70
2017,06,29,14,48,19.70
2017,06,29,14,49,19.70
2017,06,29,14,50,19.80
2017,06,29,14,51,19.80
2017,06,29,14,52,19.90
2017,06,29,14,53,19.90
2017,06,29,14,54,19.80
2017,06,29,14,55,19.80
2017,06,29,14,56,19.80
2017,06,29,14,57,19.80
2017,06,29,14,58,19.80
2017,06,29,14,59,19.80
2017,06,29,15,00,19.80
2017,06,29,15,01,19.70
2017,06,29,15,02,19.70
2017,06,29,15,03,19.70
2017,06,29,15,04,19.80
2017,06,29,15,05,19.80
2017,06,29,15,06,19.80
2017,06,29,15,07,19.80
2017,06,29,15,08,19.70
2017,06,29,15,09,19.70
2017,06,29,15,10,19.70
2017,06,29,15,11,19.60
2017,06,29,15,12,19.70
2017,06,29,15,13,19.70
2017,06,29,15,14,19.70
2017,06,29,15,15,19.80
2017,06,29,15,16,19.80
2017,06,29,15,17,19.90
2017,06,29,15,18,19.90
2017,06,29,15,19,20.00
2017,06,29,15,20,20.10
2017,06,29,15,21,20.10
2017,06,29,15,22,20.10
2017,06,29,15,23,20.20
2017,06,29,15,24,20.20
2017,06,29,15,25,20.20
2017,06,29,15,26,20.20
2017,06,29,15,27,20.20
2017,06,29,15,28,20.20
2017,06,29,15,29,20.20
2017,06,29,15,30,20.20
2017,06,29,15,31,20.20
2017,06,29,15,32,20.20
2017,06,29,15,33,20.20
2017,06,29,15,34,20.20
2017,06,29,15,35,20.30
2017,06,29,15,36,20.40
2017,06,29,15,37,20.50
2017,06,29,15,38,20.60
2017,06,29,15,39,20.70
2017,06,29,15,40,20.80
2017,06,29,15,41,20.80
2017,06,29,15,42,20.90
2017,06,29,15,43,20.90
2017,06,29,15,44,21.00
2017,06,29,15,45,21.00
2017,06,29,15,46,21.10
2017,06,29,15,47,21.00
2017,06,29,15,48,21.00
2017,06,29,15,49,20.90
2017,06,29,15,50,20.90
2017,06,29,15,51,20.90
2017,06,29,15,52,20.90
2017,06,29,15,53,20.80
2017,06,29,15,54,20.80
2017,06,29,15,55,20.80
2017,06,29,15,56,20.80
2017,06,29,15,57,20.80
2017,06,29,15,58,20.90
2017,06,29,15,59,20.90
2017,06,29,16,00,21.00
2017,06,29,16,01,21.00
2017,06,29,16,02,21.00
2017,06,29,16,03,21.00
2017,06,29,16,04,21.10
2017,06,29,16,05,21.20
2017,06,29,16,06,21.20
2017,06,29,16,07,21.30
2017,06,29,16,08,21.30
2017,06,29,16,09,21.30
2017,06,29,16,10,21.40
2017,06,29,16,11,21.40
2017,06,29,16,12,21.50
2017,06,29,16,13,21.60
2017,06,29,16,14,21.60
2017,06,29,16,15,21.60
2017,06,29,16,16,21.60
2017,06,29,16,17,21.60
2017,06,29,16,18,21.70
2017,06,29,16,19,21.70
2017,06,29,16,20,21.80
2017,06,29,16,21,21.80
2017,06,29,16,22,21.80
2017,06,29,16,23,21.80
2017,06,29,16,24,21.90
2017,06,29,16,25,21.90
2017,06,29,16,26,22.00
2017,06,29,16,27,22.00
2017,06,29,16,28,22.10
2017,06,29,16,29,22.10
2017,06,29,16,30,22.10
2017,06,29,16,31,22.10
2017,06,29,16,32,22.10
2017,06,29,16,33,22.10
2017,06,29,16,34,22.00
2017,06,29,16,35,22.00
2017,06,29,16,36,22.00
2017,06,29,16,37,22.10
2017,06,29,16,38,22.10
2017,06,29,16,39,22.20
2017,06,29,16,40,22.20
2017,06,29,16,41,22.20
2017,06,29,16,42,22.20
2017,06,29,16,43,22.30
2017,06,29,16,44,22.30
2017,06,29,16,45,22.30
2017,06,29,16,46,22.30
2017,06,29,16,47,22.40
2017,06,29,16,48,22.40
2017,06,29,16,49,22.40
2017,06,29,16,50,22.40
2017,06,29,16,51,22.40
2017,06,29,16,52,22.40
2017,06,29,16,53,22.40
2017,06,29,16,54,22.50
2017,06,29,16,55,22.50
2017,06,29,16,56,22.50
2017,06,29,16,57,22.60
2017,06,29,16,58,22.60
2017,06,29,16,59,22.60
2017,06,29,17,00,22.60
2017,06,29,17,01,22.60
2017,06,29,17,02,22.70
2017,06,29,17,03,22.70
2017,06,29,17,04,22.60
2017,06,29,17,05,22.60
2017,06,29,17,06,22.60
2017,06,29,17,07,22.60
2017,06,29,17,08,22.60
2017,06,29,17,09,22.60
2017,06,29,17,10,22.60
2017,06,29,17,11,22.50
2017,06,29,17,12,22.40
2017,06,29,17,13,22.40
2017,06,29,17,14,22.30
2017,06,29,17,15,22.30
2017,06,29,17,16,22.30
2017,06,29,17,17,22.30
2017,06,29,17,18,22.30
2017,06,29,17,19,22.40